Tracking 22124 objects as of 23-Jan-2021
HD Live streaming from Space Station
objects crossing your sky now

CZ-4B DEB

Track CZ-4B DEB now!
10-day predictions


NORAD ID: 46483
Int'l Code: 2020-067F
Perigee: 520.6 km
Apogee: 658.7 km
Inclination: 98.0 °
Period: 96.3 minutes
Semi major axis: 6960 km
RCS: Unknown
Launch date: September 27, 2020
Source: People's Republic of China (PRC)
Launch site: Taiyaun Space Center, China (TSC)

Note: This is SATELLITE DEBRIS
aabbcc
Your satellite tracking list
Your tracking list is empty




NASA's NSSDC Master Catalog

Two Line Element Set (TLE):
1 46483U 20067F   21023.19921257  .00000225  00000-0  24482-4 0  9997
2 46483  97.9539 106.1964 0099188 339.6229  20.1045 14.94958008 17632
Source of the keplerian elements: AFSPC